Regional Weather Roundup
Issued by NWS

Current Version | Previous Version | Text Only | Print | Product List | Glossary On
Versions: 1 2 3 4 5 6 7 8 9 10 11 12 13 14 15 16 17 18 19 20 21 22 23 24 25 26 27 28 29 30 31 32 33 34 35 36 37 38 39 40 41 42 43 44 45 46 47 48 49 50
000
ASCA44 KEWX 172020
RWRMX

LATIN AMERICA AND CARIBBEAN REGIONAL WEATHER ROUNDUP
NATIONAL WEATHER SERVICE AUSTIN/SAN ANTONIO TX
300 PM CDT WED SEP 17 2014

NOTE: "FAIR" INDICATED FEW OR NO CLOUDS BELOW 12,000 FEET WITH NO
SIGNIFICANT WEATHER AND/OR OBSTRUCTIONS TO VISIBILITY.

BAJA CALIFORNIA

CITY           SKY/WX    TMP DP  RH WIND       PRES   REMARKS
LORETO           N/A    N/A N/A N/A MISG        N/A
LA PAZ         PTSUNNY   86  72  62 W7        29.86  HX  92
MEXICALI       PTSUNNY   95  64  36 SW2       29.73  HX  97
S.J. DEL CABO  MOSUNNY   88  75  66 SE6       29.85  HX  97
TIJUANA        MOSUNNY   91  59  33 W17       29.76F HX  90

NORTHWESTERN MEXICO

CITY           SKY/WX    TMP DP  RH WIND       PRES   REMARKS
CULIACAN       PTSUNNY   93  77  59 CALM      29.80  HX 107
DURANGO        MOSUNNY   77  54  44 N5        30.17F
GUAYMAS        PTSUNNY   86  75  70 S9        29.75  HX  95
HERMOSILLO     LGT RAIN  81  75  83 S8        29.79
CD. JUAREZ     PTSUNNY   82  64  54 NE6       29.97
LOS MOCHIS     PTSUNNY   86  73  66 SW9       29.83F HX  93
OBREGON        PTSUNNY   90  72  55 S13       29.79  HX  96

NORTHEASTERN MEXICO

CITY           SKY/WX    TMP DP  RH WIND       PRES   REMARKS
CHIHUAHUA      PTSUNNY   81  57  44 S8        30.05
MATAMOROS      CLOUDY    90  75  62 SE12      29.92  HX 100
MONCLOVA         N/A    N/A N/A N/A MISG        N/A
MONTERREY      PTSUNNY   86  66  51 E8        29.88F
NUEVO LAREDO   PTSUNNY   95  70  43 S6        29.87  HX 101
PIEDRAS NEGRAS PTSUNNY   88  75  66 SE7       29.92F HX  97
REYNOSA        MOSUNNY   88  72  58 S9        29.87  HX  94
SALTILLO       MOSUNNY   86  68  54 N12       30.10F
TORREON        MOSUNNY   88  57  35 CALM      30.00F
CD. VICTORIA   MOSUNNY   90  66  45 SE16      29.87  HX  92

WESTERN MEXICO

CITY           SKY/WX    TMP DP  RH WIND       PRES   REMARKS
AGUASCALIENTES PTSUNNY   72  54  53 SW7       30.21
COLIMA         PTSUNNY   82  73  74 CALM      29.94F
DEL BAJIO      PTSUNNY   77  57  50 E5        30.22F
GUADALAJARA    PTSUNNY   79  57  47 CALM      30.11
MANZANILLO     PTSUNNY   91  79  66 NW7       29.79F HX 107
MAZATLAN       MOSUNNY   84  77  79 SW10      29.81F HX  94
P. VALLARTA    MOSUNNY   88  75  66 S9        29.82F HX  97
URUAPAN        CLOUDY    77  61  57 NE12      30.15F
ZACATECAS      MOSUNNY   75  50  41 SE12      30.22

CENTRAL MEXICO

CITY           SKY/WX    TMP DP  RH WIND       PRES   REMARKS
CUERNAVACA     PTSUNNY   81  57  44 CALM      30.11F
MEXICO CITY    PTSUNNY   72  48  43 S8        30.29F
MORELIA        PTSUNNY   73  57  56 S12       30.18
POZA RICA      PTSUNNY   91  75  59 E9        29.89F HX 102
PUEBLA         PTSUNNY   79  59  50 S21       30.32F
QUERETARO      PTSUNNY   77  54  44 SE6       30.24F
S. LUIS POTOSI PTSUNNY   75  55  50 N9        30.18F
TAMPICO        PTSUNNY   82  75  78 W7        29.88F
TOLUCA         PTSUNNY   64  45  48 S16       30.38F

SOUTHERN MEXICO

CITY           SKY/WX    TMP DP  RH WIND       PRES   REMARKS
ACAPULCO       LGT RAIN  79  75  89 E9        29.90F
B. DE HUATULCO PTSUNNY   86  75  70 CALM      29.94  HX  95
P. ESCONDIDO   PTSUNNY   84  77  79 S10       30.04F HX  94
VERACRUZ       PTSUNNY   86  73  66 NE5       29.86F HX  93
ZIHUATANEJO    PTSUNNY   90  73  58 SE12      29.81F HX  98

YUCATAN PENINSULA

CITY           SKY/WX    TMP DP  RH WIND       PRES   REMARKS
CAMPECHE       MOSUNNY   88  79  74 W12       29.87F HX 102
CANCUN         MOSUNNY   86  73  66 SE12      29.91F HX  93
CHETUMAL       MOSUNNY   90  82  79 E6        29.87F HX 111
CD. DEL CARMEN MOSUNNY   88  75  66 N7        29.87  HX  97
COZUMEL        MOSUNNY   82  77  83 W7        29.91F HX  91
MERIDA         PTSUNNY   91  66  43 SE9       29.88F HX  94
MINATITLAN     PTSUNNY   88  75  66 SW12      29.84  HX  97
TAPACHULA      PTSUNNY   88  77  70 W14       29.87F HX 100
TUX. GUTIERREZ MOSUNNY   88  72  58 CALM      29.92F HX  94
VILLAHERMOSA   PTSUNNY   88  73  62 CALM      29.89F HAZE    HX  96

CENTRAL AMERICA

CITY           SKY/WX    TMP DP  RH WIND       PRES   REMARKS
BELIZE CITY    PTSUNNY   88  79  74 E8        29.88  HX 102
MANAGUA        PTCLDY    90  75  62 SE9       29.80F HX 100

CARIBBEAN

CITY           SKY/WX    TMP DP  RH WIND       PRES   REMARKS
ARUBA          PTSUNNY   88  77  70 E16       29.80F HX 100
CURACAO        MOSUNNY   88  75  66 E13       29.83S HX  97
KINGSTON       MOSUNNY   86  75  70 SE17      29.86F THUNDER HX  95
NASSAU         PTSUNNY   86  73  66 NE7       29.91  HX  93
SAN JUAN       PTSUNNY   84  75  74 E13       29.92F HX  92
SANTO DOMINGO  MOSUNNY   88  75  66 SE7       29.86F HX  97
ST. CROIX      MOSUNNY   86  73  66 NE9       29.92F HX  93
ST. KITTS      MOSUNNY   86  77  74 NE12      29.89F HX  97
ST. MAARTEN    MOSUNNY   88  73  62 E9        29.89F HX  96

$$



USA.gov is the U.S. government's official web portal to all federal, state and local government web resources and services.